Flag for Germany Weather past 2 weeks in Hildesheim, Lower Saxony, Germany

Now
43 °F

Overcast.


Feels Like: 35 °F
Forecast: 37 / 45 °F
Wind: 15 mph from Southwest

Location: Braunschweig

Current Time: Mar 1, 2015 at 12:14:14 PM

Latest Report: Mar 1, 2015 at 11:20 AM


Visibility: N/A

Pressure: 29.56 "Hg

Humidity: 87%

Dew point: 39 °F

Location of HildesheimLocation

Historic Weather in Hildesheim — Graph

°F

Hildesheim temperature yesterday

Maximum temperature yesterday: 46 °F (at 2:20 PM)
Minimum temperature yesterday: 32 °F (at 7:50 AM)
Average temperature yesterday: 41 °F

Past Weeks' High & Low Weather Summary

 TemperatureHumidityPressure
High52 °F (Feb 26, 3:20 PM)100% (Feb 15, 7:50 AM)30.74 "Hg (Feb 15, 7:50 AM)
Low27 °F (Feb 26, 6:50 AM)47% (Feb 26, 3:20 PM)29.33 "Hg (Feb 21, 9:50 AM)
Average40 °F81%29.98 "Hg
* Reported Feb 14 10:20 AM — Mar 1 10:50 AM, Hildesheim, Weather by CustomWeather, © 2015

Note: Actual official high and low records may vary slightly from our data, if they occured in-between our weather recording intervals... More about our weather records

Advertising

Hildesheim weather history for previous 24 hours

 ConditionsComfort  
Time TempWeatherWind HumidityBarometerVisibility
10:50 AM
Sun, Mar 1
43 °FMostly cloudy.22 mph87%29.56 "HgN/A
10:20 AM41 °FMostly cloudy.14 mph93%29.56 "HgN/A
9:50 AM41 °FMore clouds than sun.16 mph87%29.56 "HgN/A
9:20 AM41 °FMostly cloudy.16 mph87%29.56 "HgN/A
8:50 AM41 °FMostly cloudy.10 mph93%29.56 "HgN/A
8:20 AM39 °FLight rain. More clouds than sun.9 mph93%29.56 "HgN/A
7:50 AM41 °FLight rain. Mostly cloudy.10 mph81%29.56 "HgN/A
5:50 PM
Sat, Feb 28
43 °FSunny.12 mph53%30.01 "Hg10 mi
5:20 PM45 °FSunny.13 mph49%30.01 "Hg10 mi
4:50 PM45 °FSunny.12 mph53%30.01 "Hg10 mi
4:20 PM45 °FSunny.12 mph49%30.04 "Hg10 mi
3:50 PM46 °FPassing clouds.9 mph50%30.04 "HgN/A
3:20 PM45 °FSunny.10 mph53%30.04 "Hg10 mi
2:50 PM45 °FPassing clouds.12 mph53%30.04 "HgN/A
2:20 PM46 °FPassing clouds.13 mph53%30.07 "HgN/A
1:50 PM45 °FPassing clouds.10 mph61%30.07 "HgN/A
1:20 PM45 °FPassing clouds.10 mph61%30.07 "HgN/A
12:50 PM43 °FPassing clouds.10 mph71%30.09 "HgN/A
12:20 PM41 °FScattered clouds.10 mph76%30.09 "HgN/A
Weather by CustomWeather, © 2015

See weather overviewHow to use our weather pages